Tiempo cada hora Murlatinamahi

Hoy, 31 Octubre, Sábado

Tiempo Temperatura Precipitaciones Viento Presión Humedad
00:00 +9°C° 0 mm 3 mps 604 mmHg 45%
01:00 +9°C° 0 mm 3 mps 604 mmHg 47%
02:00 +9°C° 0 mm 3 mps 604 mmHg 49%
03:00 +9°C° 0 mm 3 mps 604 mmHg 52%
04:00 +9°C° 0 mm 3 mps 604 mmHg 53%
05:00 +9°C° 0 mm 3 mps 604 mmHg 55%
06:00 +9°C° 0 mm 3 mps 604 mmHg 56%
07:00 +10°C° 0 mm 3 mps 604 mmHg 53%
08:00 +12°C° 0 mm 3 mps 605 mmHg 49%
09:00 +14°C° 0 mm 3 mps 606 mmHg 46%
10:00 +16°C° 0 mm 3 mps 606 mmHg 41%
11:00 +17°C° 0 mm 4 mps 606 mmHg 36%
12:00 +18°C° 0 mm 4 mps 606 mmHg 32%
13:00 +18°C° 0 mm 4 mps 606 mmHg 33%
14:00 +17°C° 0 mm 3 mps 606 mmHg 34%
15:00 +17°C° 0 mm 3 mps 605 mmHg 36%
16:00 +14°C° 0 mm 3 mps 605 mmHg 38%
17:00 +13°C° 0 mm 3 mps 604 mmHg 40%
18:00 +11°C° 0 mm 3 mps 604 mmHg 42%
19:00 +11°C° 0 mm 3 mps 604 mmHg 42%
20:00 +11°C° 0 mm 3 mps 603 mmHg 43%
21:00 +10°C° 0 mm 3 mps 603 mmHg 43%
22:00 +10°C° 0 mm 3 mps 603 mmHg 43%
23:00 +11°C° 0 mm 3 mps 603 mmHg 42%

Mañana, 1 Noviembre, Domingo

Tiempo Temperatura Precipitaciones Viento Presión Humedad
00:00 +11°C° 0 mm 3 mps 603 mmHg 42%
01:00 +10°C° 0 mm 3 mps 603 mmHg 43%
02:00 +10°C° 0 mm 3 mps 603 mmHg 43%
03:00 +10°C° 0 mm 3 mps 603 mmHg 44%
04:00 +10°C° 0 mm 3 mps 603 mmHg 45%
05:00 +10°C° 0 mm 3 mps 603 mmHg 45%
06:00 +9°C° 0 mm 3 mps 603 mmHg 46%
07:00 +11°C° 0 mm 3 mps 604 mmHg 43%
08:00 +12°C° 0 mm 3 mps 605 mmHg 40%
09:00 +15°C° 0 mm 2 mps 606 mmHg 37%
10:00 +16°C° 0 mm 3 mps 606 mmHg 34%
11:00 +16°C° 0 mm 3 mps 606 mmHg 32%
12:00 +17°C° 0 mm 3 mps 606 mmHg 30%
13:00 +17°C° 0 mm 3 mps 606 mmHg 31%
14:00 +16°C° 0 mm 3 mps 606 mmHg 32%
15:00 +16°C° 0 mm 3 mps 606 mmHg 33%
16:00 +13°C° 0 mm 3 mps 605 mmHg 35%
17:00 +12°C° 0 mm 3 mps 605 mmHg 36%
18:00 +10°C° 0 mm 3 mps 604 mmHg 38%
19:00 +10°C° 0 mm 3 mps 604 mmHg 37%
20:00 +9°C° 0 mm 3 mps 604 mmHg 37%
21:00 +9°C° 0 mm 3 mps 604 mmHg 37%
22:00 +9°C° 0 mm 3 mps 604 mmHg 37%
23:00 +9°C° 0 mm 3 mps 604 mmHg 38%

Pasado mañana, 2 Noviembre, Lunes

Tiempo Temperatura Precipitaciones Viento Presión Humedad
00:00 +8°C° 0 mm 4 mps 604 mmHg 38%
01:00 +9°C° 0 mm 3 mps 604 mmHg 39%
02:00 +9°C° 0 mm 3 mps 604 mmHg 40%
03:00 +9°C° 0 mm 3 mps 604 mmHg 41%
04:00 +8°C° 0 mm 3 mps 604 mmHg 43%
05:00 +8°C° 0 mm 3 mps 605 mmHg 44%
06:00 +8°C° 0 mm 3 mps 605 mmHg 45%
07:00 +9°C° 0 mm 3 mps 606 mmHg 44%
08:00 +12°C° 0 mm 2 mps 607 mmHg 43%
09:00 +13°C° 0 mm 2 mps 608 mmHg 43%
10:00 +13°C° 0 mm 2 mps 608 mmHg 43%
11:00 +14°C° 0 mm 2 mps 608 mmHg 43%
12:00 +14°C° 0 mm 2 mps 608 mmHg 44%
13:00 +14°C° 0 mm 2 mps 608 mmHg 48%
14:00 +13°C° 0 mm 2 mps 607 mmHg 53%
15:00 +12°C° 0 mm 2 mps 607 mmHg 57%
16:00 +10°C° 0 mm 2 mps 607 mmHg 63%
17:00 +8°C° 0 mm 2 mps 606 mmHg 68%
18:00 +7°C° 0 mm 2 mps 606 mmHg 73%
19:00 +7°C° 0 mm 2 mps 606 mmHg 72%
20:00 +7°C° 0 mm 2 mps 606 mmHg 72%
21:00 +6°C° 0 mm 2 mps 606 mmHg 72%
22:00 +6°C° 0 mm 2 mps 606 mmHg 71%
23:00 +6°C° 0 mm 2 mps 606 mmHg 71%

3 Noviembre, Martes

Tiempo Temperatura Precipitaciones Viento Presión Humedad
00:00 +7°C° 0 mm 2 mps 606 mmHg 70%
01:00 +7°C° 0 mm 1 mps 605 mmHg 72%
02:00 +7°C° 0 mm 1 mps 605 mmHg 73%
03:00 +6°C° 0 mm 1 mps 605 mmHg 75%
04:00 +6°C° 0 mm 1 mps 605 mmHg 77%
05:00 +6°C° 0 mm 1 mps 605 mmHg 79%
06:00 +6°C° 0 mm 1 mps 605 mmHg 81%
07:00 +7°C° 0 mm 1 mps 606 mmHg 78%
08:00 +8°C° 0 mm 1 mps 606 mmHg 74%
09:00 +9°C° 0 mm 1 mps 607 mmHg 70%
10:00 +9°C° 0 mm 1 mps 607 mmHg 67%
11:00 +9°C° 0 mm 2 mps 607 mmHg 64%
12:00 +10°C° 0 mm 2 mps 608 mmHg 61%
13:00 +9°C° 0 mm 2 mps 607 mmHg 62%
14:00 +9°C° 0 mm 2 mps 607 mmHg 64%
15:00 +8°C° 0 mm 2 mps 607 mmHg 65%
16:00 +8°C° 0 mm 2 mps 606 mmHg 68%
17:00 +8°C° 0 mm 1 mps 606 mmHg 72%
18:00 +7°C° 0 mm 1 mps 606 mmHg 75%
19:00 +7°C° 0 mm 1 mps 606 mmHg 74%
20:00 +6°C° 0 mm 1 mps 606 mmHg 73%
21:00 +6°C° 0 mm 1 mps 606 mmHg 72%
22:00 +6°C° 0 mm 1 mps 606 mmHg 71%
23:00 +6°C° 0 mm 1 mps 606 mmHg 71%

4 Noviembre, Miércoles

Tiempo Temperatura Precipitaciones Viento Presión Humedad
00:00 +6°C° 0 mm 1 mps 605 mmHg 70%
01:00 +6°C° 0 mm 1 mps 605 mmHg 70%
02:00 +5°C° 0 mm 2 mps 605 mmHg 70%
03:00 +5°C° 0 mm 2 mps 605 mmHg 71%
04:00 +5°C° 0 mm 2 mps 605 mmHg 71%
05:00 +5°C° 0 mm 2 mps 605 mmHg 72%
06:00 +5°C° 0 mm 2 mps 605 mmHg 72%
07:00 +7°C° 0 mm 2 mps 605 mmHg 67%
08:00 +8°C° 0 mm 2 mps 606 mmHg 62%
09:00 +10°C° 0 mm 2 mps 607 mmHg 57%
10:00 +12°C° 0 mm 2 mps 607 mmHg 53%
11:00 +13°C° 0 mm 2 mps 607 mmHg 49%
12:00 +13°C° 0 mm 2 mps 607 mmHg 46%
13:00 +13°C° 0 mm 2 mps 607 mmHg 47%
14:00 +13°C° 0 mm 2 mps 606 mmHg 49%
15:00 +12°C° 0 mm 2 mps 606 mmHg 51%
16:00 +10°C° 0 mm 2 mps 605 mmHg 55%
17:00 +9°C° 0 mm 2 mps 605 mmHg 58%
18:00 +8°C° 0 mm 2 mps 605 mmHg 62%
19:00 +8°C° 0 mm 2 mps 605 mmHg 62%
20:00 +8°C° 0 mm 2 mps 605 mmHg 61%
21:00 +7°C° 0 mm 2 mps 605 mmHg 61%
22:00 +7°C° 0 mm 2 mps 604 mmHg 62%
23:00 +7°C° 0 mm 2 mps 604 mmHg 62%

5 Noviembre, Jueves

Tiempo Temperatura Precipitaciones Viento Presión Humedad
00:00 +7°C° 0 mm 2 mps 604 mmHg 62%
01:00 +7°C° 0 mm 2 mps 604 mmHg 63%
02:00 +6°C° 0 mm 2 mps 604 mmHg 64%
03:00 +6°C° 0 mm 2 mps 603 mmHg 65%
04:00 +6°C° 0 mm 2 mps 603 mmHg 65%
05:00 +6°C° 0 mm 2 mps 603 mmHg 66%
06:00 +7°C° 0 mm 1 mps 603 mmHg 67%
07:00 +8°C° 0 mm 1 mps 604 mmHg 64%
08:00 +8°C° 0 mm 2 mps 604 mmHg 62%
09:00 +9°C° 0 mm 2 mps 605 mmHg 60%
10:00 +9°C° 0 mm 2 mps 605 mmHg 61%
11:00 +9°C° 0 mm 2 mps 605 mmHg 62%
12:00 +9°C° 0 mm 2 mps 605 mmHg 63%
13:00 +8°C° 0 mm 2 mps 605 mmHg 67%
14:00 +8°C° 0 mm 2 mps 604 mmHg 70%
15:00 +7°C° 0 mm 2 mps 604 mmHg 74%
16:00 +6°C° 0.1 mm 2 mps 604 mmHg 78%
17:00 +5°C° 0.1 mm 2 mps 604 mmHg 83%
18:00 +5°C° 0.1 mm 1 mps 604 mmHg 88%
19:00 +5°C° 0.2 mm 1 mps 604 mmHg 89%
20:00 +5°C° 0.2 mm 1 mps 604 mmHg 91%
21:00 +5°C° 0.2 mm 1 mps 604 mmHg 92%
22:00 +4°C° 0.1 mm 1 mps 604 mmHg 92%
23:00 +4°C° 0.1 mm 1 mps 604 mmHg 92%
Mostrar más

Necesitamos Su Consentimiento

Meteoprog y nuestros Proveedores de Servicios pueden almacenar y acceder a sus datos personales como cookies, identificadores de dispositivo u otras tecnologías similares de su dispositivo y procesar dichos datos para personalizar contenido y anuncios, además de ofrecer funciones de redes sociales y analizar el tráfico.

  • Almacenar y/o acceder a información en su dispositivo

    Se puede almacenar o acceder a cookies, identificadores de dispositivo u otra información de su dispositivo para los fines anteriormente indicados.

  • Anuncios y contenido personalizados, medición de anuncios y contenido, percepciones del público, y desarrollo de productos

    Los anuncios y el contenido pueden personalizarse en base a su perfil. Se pueden añadir más datos para personalizar mejor los anuncios y contenidos. Se puede medir el rendimiento de los anuncios y contenidos. Se puede obtener la percepción sobre el público que ha visto los anuncios y contenidos. Dichos datos pueden usarse para desarrollar o mejorar la experiencia del usuario, sistemas y software.

Al hacer clic en ‘Estoy De Acuerdo’ usted permitirá el uso de las cookies, identificadores de dispositivo, balizas web u otras tecnologías similares indicadas. Su configuración puede cambiarse desde el navegador de su dispositivo.

Para ciertos fines, los intereses legítimos pueden ser considerados por encima del consentimiento. Puede leer más sobre ello en nuestra Política de Privacidad y Cookies.